Flag for Lithuania Weather past 2 weeks in Kaunas, Lithuania

Now
70 °F

Passing clouds.


Feels Like: 70 °F
Forecast: 47 / 68 °F
Wind: 8 mph from Southeast

Location: Kaunas

Current Time: Sep 18, 2014 at 5:13:44 PM

Latest Report: Sep 18, 2014 at 4:50 PM


Visibility: N/A

Pressure: 30.24 "Hg

Humidity: 33%

Dew point: 39 °F

Location of KaunasLocation

Historic Weather in Kaunas — Graph

°F

Kaunas temperature yesterday

Maximum temperature yesterday: 66 °F (at 12:20 PM)
Minimum temperature yesterday: 41 °F (at 7:20 AM)
Average temperature yesterday: 54 °F

Past Weeks' High & Low Weather Summary

 TemperatureHumidityPressure
High77 °F (Sep 12, 3:20 PM)100% (Sep 11, 5:20 AM)30.45 "Hg (Sep 11, 5:20 AM)
Low37 °F (Sep 16, 6:50 AM)30% (Sep 18, 1:50 PM)29.89 "Hg (Sep 9, 5:20 PM)
Average58 °F73%30.19 "Hg
* Reported Sep 3 4:20 PM — Sep 18 4:20 PM, Kaunas, Weather by CustomWeather, © 2014

Note: Actual official high and low records may vary slightly from our data, if they occured in-between our weather recording intervals... More about our weather records

Advertising

Kaunas weather history for previous 24 hours

 ConditionsComfort  
Time TempWeatherWind HumidityBarometerVisibility
4:20 PM
Sep 18
70 °FPassing clouds.9 mph31%30.24 "HgN/A
3:50 PM70 °FPassing clouds.9 mph33%30.24 "HgN/A
3:20 PM70 °FPassing clouds.9 mph31%30.24 "HgN/A
2:50 PM70 °FPassing clouds.10 mph31%30.27 "HgN/A
2:20 PM70 °FPassing clouds.9 mph31%30.27 "HgN/A
1:50 PM68 °FPassing clouds.10 mph30%30.27 "HgN/A
1:20 PM68 °FPassing clouds.9 mph33%30.27 "HgN/A
12:50 PM68 °FPassing clouds.7 mph38%30.30 "HgN/A
12:20 PM66 °FPassing clouds.7 mph40%30.30 "HgN/A
11:50 AM64 °FPassing clouds.6 mph46%30.30 "HgN/A
11:20 AM63 °FPassing clouds.5 mph49%30.30 "HgN/A
10:50 AM61 °FPassing clouds.5 mph52%30.30 "HgN/A
10:20 AM57 °FPassing clouds.3 mph59%30.30 "HgN/A
9:50 AM55 °FPassing clouds.3 mph63%30.30 "HgN/A
9:20 AM52 °FSunny.5 mph72%30.30 "Hg10 mi
8:50 AM48 °FPassing clouds.3 mph82%30.30 "HgN/A
8:20 AM45 °FPassing clouds.3 mph87%30.30 "HgN/A
7:50 AM41 °FClear.5 mph87%30.30 "Hg10 mi
7:20 AM41 °FFog.5 mph87%30.30 "Hg5 mi
6:50 AM41 °FFog.3 mph87%30.30 "Hg5 mi
6:20 AM41 °FFog.5 mph87%30.30 "HgN/A
5:50 AM41 °FFog.5 mph87%30.30 "HgN/A
5:20 AM41 °FFog.5 mph93%30.30 "HgN/A
4:50 AM41 °FClear.5 mph93%30.30 "Hg10 mi
4:20 AM43 °FClear.5 mph87%30.30 "Hg10 mi
3:50 AM43 °FClear.2 mph87%30.30 "Hg10 mi
3:20 AM43 °FOvercast.5 mph87%30.30 "HgN/A
2:50 AM45 °FPassing clouds.5 mph87%30.30 "HgN/A
2:20 AM45 °FQuite cool.5 mph87%30.30 "HgN/A
1:50 AM45 °FQuite cool.3 mph87%30.30 "HgN/A
1:20 AM45 °FPassing clouds.3 mph93%30.30 "HgN/A
12:50 AM46 °FCool.5 mph87%30.30 "HgN/A
12:20 AM46 °FCool.6 mph87%30.30 "HgN/A
11:50 PM
Sep 17
48 °FPassing clouds.6 mph87%30.30 "HgN/A
11:20 PM48 °FClear.6 mph87%30.30 "Hg6 mi
10:50 PM48 °FClear.6 mph87%30.30 "Hg6 mi
10:20 PM48 °FClear.5 mph87%30.30 "Hg10 mi
9:50 PM52 °FClear.5 mph82%30.30 "Hg10 mi
9:20 PM54 °FClear.2 mph82%30.27 "Hg10 mi
8:50 PM55 °FClear.5 mph77%30.27 "Hg10 mi
8:20 PM57 °FSunny.3 mph72%30.27 "Hg10 mi
7:50 PM61 °FSunny.3 mph63%30.27 "Hg10 mi
7:20 PM61 °FSunny.5 mph59%30.27 "Hg10 mi
6:50 PM63 °FPassing clouds.3 mph56%30.27 "HgN/A
6:20 PM64 °FSunny.3 mph56%30.27 "Hg10 mi
5:50 PM63 °FSunny.5 mph56%30.27 "Hg10 mi
5:20 PM64 °FPassing clouds.6 mph46%30.27 "HgN/A
Weather by CustomWeather, © 2014

See weather overviewHow to use our weather pages